Fremont, MI

6:18 PM EST on November 11, 2019 (GMT -0500)
Fremont

Weather History for KFFX - October, 2019

Change the Weather History Date:

Monday, October 21, 2019

  Actual Average (KMKG) Record (KMKG)
Temperature  
Mean Temperature 56 °F -  
Max Temperature 62 °F 56 °F 81 °F (1953)
Min Temperature 49 °F 41 °F 22 °F (1952)
Degree Days  
Heating Degree Days 10    
Growing Degree Days 6 (Base 50)    
Moisture  
Dew Point 52 °F    
Average Humidity 86    
Maximum Humidity 100    
Minimum Humidity 62    
Precipitation  
Precipitation 0.00 in - - ()
Sea Level Pressure  
Sea Level Pressure 29.68 in    
Wind  
Wind Speed 10 mph ()    
Max Wind Speed 25 mph    
Max Gust Speed 36 mph    
Visibility 9.4 miles    
Events Rain    
Averages and records for this station are not official NWS values.
T = Trace of Precipitation, MM = Missing Value Source: Averaged Metar Reports

Daily Weather History Graph

Daily Weather History Graph

Search for Another Location

Airport or City:

Astronomy

Oct. 21, 2019 Rise Set
Actual Time 8:05 AM EDT 6:51 PM EDT
Civil Twilight 7:35 AM EDT 7:20 PM EDT
Nautical Twilight 7:02 AM EDT 7:53 PM EDT
Astronomical Twilight 6:29 AM EDT 8:26 PM EDT
Moon No Moon Rise 3:28 PM EDT (10/21)
Length of Visible Light 11h 44m
Length of Day
10h 46m
Waning Gibbous, 48% of the Moon is Illuminated
Oct 21
Waning Gibbous
Oct 27
New
Nov 4
First Quarter
Nov 12
Full
Nov 19
Last Quarter

Hourly Weather History & Observations

Time (EDT) Temp. Dew Point Humidity Pressure Visibility Wind Dir Wind Speed Gust Speed Precip Events Conditions
12:15 AM 49.5 °F 49.5 °F 100% 29.94 in 10.0 mi East 4.6 mph - N/A   Clear
12:16 AM 49.3 °F 49.3 °F 100% 29.94 in 10.0 mi East 4.6 mph - N/A   Clear
12:35 AM 49.6 °F 49.6 °F 100% 29.93 in 10.0 mi East 4.6 mph - N/A   Clear
12:36 AM 49.5 °F 49.5 °F 100% 29.93 in 10.0 mi East 5.8 mph - N/A   Clear
12:55 AM 49.3 °F 46.4 °F 90% 29.93 in 10.0 mi East 6.9 mph - N/A   Clear
1:18 AM 50.9 °F 41.9 °F 71% 29.94 in 10.0 mi East 8.1 mph - N/A   Clear
1:36 AM 51.3 °F 41.4 °F 69% 29.93 in 10.0 mi East 9.2 mph - N/A   Mostly Cloudy
1:55 AM 51.8 °F 40.6 °F 66% 29.93 in 10.0 mi East 8.1 mph - N/A   Mostly Cloudy
1:56 AM 51.8 °F 40.5 °F 65% 29.93 in 10.0 mi East 6.9 mph - N/A   Mostly Cloudy
2:15 AM 52.2 °F 40.5 °F 64% 29.93 in 10.0 mi East 10.4 mph - N/A   Mostly Cloudy
2:16 AM 52.2 °F 40.6 °F 65% 29.93 in 10.0 mi East 11.5 mph - N/A   Mostly Cloudy
2:39 AM 52.0 °F 43.0 °F 71% 29.92 in 10.0 mi East 12.7 mph - N/A   Overcast
2:57 AM 51.8 °F 44.2 °F 75% 29.91 in 10.0 mi East 11.5 mph 16.1 mph N/A   Overcast
3:15 AM 51.8 °F 45.1 °F 78% 29.90 in 10.0 mi East 11.5 mph - N/A   Mostly Cloudy
3:35 AM 51.4 °F 47.7 °F 87% 29.88 in 10.0 mi East 10.4 mph 16.1 mph N/A   Mostly Cloudy
3:36 AM 51.4 °F 47.7 °F 87% 29.88 in 10.0 mi East 10.4 mph 16.1 mph N/A   Mostly Cloudy
3:55 AM 51.3 °F 49.3 °F 93% 29.90 in 10.0 mi East 5.8 mph - N/A   Overcast
4:00 AM 51.3 °F 49.6 °F 94% 29.90 in 10.0 mi East 4.6 mph - N/A   Overcast
4:18 AM 51.8 °F 50.2 °F 94% 29.91 in 10.0 mi ESE 8.1 mph - N/A   Overcast
4:36 AM 51.4 °F 50.9 °F 98% 29.89 in 10.0 mi East 8.1 mph - N/A   Overcast
4:55 AM 51.3 °F 51.1 °F 99% 29.91 in 10.0 mi East 9.2 mph - N/A   Overcast
4:56 AM 51.3 °F 51.1 °F 99% 29.90 in 10.0 mi East 6.9 mph - N/A   Overcast
5:15 AM 51.8 °F 51.3 °F 98% 29.89 in 10.0 mi East 8.1 mph - N/A   Overcast
5:39 AM 51.8 °F 51.3 °F 98% 29.88 in 10.0 mi East 8.1 mph - N/A   Overcast
5:57 AM 51.8 °F 50.9 °F 97% 29.87 in 10.0 mi East 11.5 mph 16.1 mph N/A   Mostly Cloudy
6:15 AM 52.2 °F 50.9 °F 95% 29.87 in 10.0 mi East 9.2 mph - N/A   Mostly Cloudy
6:35 AM 52.7 °F 49.8 °F 90% 29.86 in 10.0 mi ESE 8.1 mph - N/A   Overcast
6:36 AM 52.7 °F 49.6 °F 89% 29.86 in 10.0 mi ESE 10.4 mph - N/A   Overcast
6:55 AM 52.7 °F 48.2 °F 85% 29.85 in 10.0 mi East 8.1 mph - N/A   Overcast
7:00 AM 52.7 °F 47.3 °F 82% 29.85 in 10.0 mi East 9.2 mph - N/A   Overcast
7:18 AM 53.1 °F 46.2 °F 78% 29.84 in 10.0 mi East 9.2 mph 18.4 mph N/A   Overcast
7:36 AM 53.2 °F 45.5 °F 75% 29.83 in 10.0 mi East 12.7 mph 17.3 mph N/A   Overcast
7:55 AM 52.9 °F 45.5 °F 76% 29.80 in 10.0 mi East 11.5 mph 19.6 mph N/A   Overcast
8:15 AM 52.9 °F 45.5 °F 76% 29.78 in 10.0 mi East 11.5 mph 17.3 mph N/A   Overcast
8:16 AM 52.9 °F 45.3 °F 75% 29.78 in 10.0 mi East 12.7 mph 17.3 mph N/A   Overcast
8:39 AM 53.1 °F 45.1 °F 74% 29.79 in 10.0 mi East 8.1 mph 16.1 mph N/A   Overcast
8:57 AM 53.6 °F 45.0 °F 73% 29.80 in 10.0 mi ESE 9.2 mph 17.3 mph N/A   Overcast
9:16 AM 54.0 °F 44.8 °F 71% 29.79 in 10.0 mi East 8.1 mph 16.1 mph N/A   Overcast
9:35 AM 54.1 °F 45.0 °F 71% 29.77 in 10.0 mi East 11.5 mph 17.3 mph N/A   Overcast
9:55 AM 54.7 °F 45.1 °F 70% 29.75 in 10.0 mi ESE 12.7 mph 17.3 mph N/A   Overcast
10:00 AM 54.7 °F 45.3 °F 71% 29.75 in 10.0 mi ESE 9.2 mph 16.1 mph N/A   Overcast
10:18 AM 55.0 °F 45.5 °F 70% 29.75 in 10.0 mi ESE 9.2 mph 21.9 mph N/A   Mostly Cloudy
10:36 AM 55.6 °F 45.9 °F 70% 29.74 in 10.0 mi ESE 11.5 mph 18.4 mph N/A   Mostly Cloudy
10:55 AM 56.1 °F 46.4 °F 70% 29.71 in 10.0 mi East 10.4 mph 16.1 mph N/A   Overcast
11:15 AM 57.2 °F 46.8 °F 68% 29.69 in 10.0 mi ESE 8.1 mph 23.0 mph N/A   Overcast
11:39 AM 58.8 °F 47.5 °F 66% 29.67 in 10.0 mi ESE 11.5 mph 16.1 mph N/A   Overcast
11:57 AM 59.2 °F 48.6 °F 68% 29.66 in 10.0 mi ESE 11.5 mph 18.4 mph N/A   Overcast
12:15 PM 60.1 °F 50.0 °F 69% 29.62 in 10.0 mi ESE 19.6 mph 31.1 mph N/A   Overcast
12:16 PM 60.3 °F 50.0 °F 69% 29.62 in 10.0 mi ESE 23.0 mph 32.2 mph N/A   Overcast
12:35 PM 59.7 °F 52.3 °F 77% 29.62 in 10.0 mi SE 20.7 mph 35.7 mph N/A   Drizzle
12:36 PM 59.5 °F 52.5 °F 78% 29.61 in 10.0 mi SE 19.6 mph 35.7 mph N/A   Drizzle
12:55 PM 58.5 °F 57.7 °F 97% 29.62 in 7.0 mi ESE 20.7 mph 35.7 mph N/A Rain Light Rain
1:00 PM 58.1 °F 58.1 °F 100% 29.61 in 7.0 mi ESE 16.1 mph 27.6 mph N/A Rain Light Rain
1:18 PM 58.1 °F 58.1 °F 100% 29.59 in 7.0 mi ESE 19.6 mph 26.5 mph N/A Rain Rain
1:36 PM 58.3 °F 58.3 °F 100% 29.54 in 4.0 mi ESE 25.3 mph 34.5 mph N/A Rain Rain
1:55 PM 59.0 °F 59.0 °F 100% 29.50 in 7.0 mi ESE 19.6 mph 33.4 mph N/A Rain Light Rain
2:15 PM 59.4 °F 59.4 °F 100% 29.51 in 10.0 mi SE 16.1 mph 33.4 mph N/A   Overcast
2:16 PM 59.4 °F 59.4 °F 100% 29.51 in 10.0 mi SE 18.4 mph 33.4 mph N/A   Overcast
2:39 PM 59.9 °F 59.9 °F 100% 29.53 in 10.0 mi SSE 17.3 mph 29.9 mph N/A   Overcast
2:57 PM 60.1 °F 60.1 °F 100% 29.51 in 10.0 mi SE 15.0 mph 26.5 mph N/A   Overcast
3:15 PM 59.9 °F 59.9 °F 100% 29.51 in 10.0 mi SSE 13.8 mph 26.5 mph N/A Rain Rain
3:55 PM 59.2 °F 59.2 °F 100% 29.50 in 4.0 mi SSE 13.8 mph 24.2 mph N/A Rain Light Rain
3:59 PM 59.2 °F 59.2 °F 100% 29.50 in 4.0 mi SSE 12.7 mph 24.2 mph N/A Rain Light Rain
4:18 PM 59.4 °F 59.4 °F 100% 29.49 in 3.0 mi SSE 18.4 mph 27.6 mph N/A Rain Light Rain
4:36 PM 59.5 °F 59.5 °F 100% 29.49 in 4.0 mi SE 13.8 mph 23.0 mph N/A Rain Rain
4:55 PM 59.5 °F 59.5 °F 100% 29.49 in 3.0 mi SSE 11.5 mph 19.6 mph N/A Rain Heavy Rain
4:56 PM 59.5 °F 59.5 °F 100% 29.49 in 2.5 mi SSE 9.2 mph 19.6 mph N/A Rain Heavy Rain
5:15 PM 59.7 °F 59.7 °F 100% 29.48 in 7.0 mi SE 10.4 mph 23.0 mph N/A Rain Rain
5:39 PM 60.1 °F 60.1 °F 100% 29.48 in 10.0 mi South 12.7 mph 24.2 mph N/A   Overcast
5:57 PM 60.4 °F 60.4 °F 100% 29.48 in 10.0 mi SSE 12.7 mph 19.6 mph N/A Rain Light Rain
6:15 PM 60.8 °F 60.8 °F 100% 29.47 in 10.0 mi SSE 10.4 mph 19.6 mph N/A Rain Light Rain
6:16 PM 60.8 °F 60.8 °F 100% 29.47 in 10.0 mi South 9.2 mph 19.6 mph N/A Rain Light Rain
6:35 PM 61.0 °F 61.0 °F 100% 29.48 in 10.0 mi South 13.8 mph 18.4 mph N/A   Overcast
6:36 PM 61.0 °F 61.0 °F 100% 29.48 in 10.0 mi South 12.7 mph 18.4 mph N/A   Overcast
6:55 PM 61.2 °F 61.2 °F 100% 29.48 in 10.0 mi SSE 8.1 mph - N/A   Overcast
7:18 PM 61.2 °F 61.2 °F 100% 29.48 in 10.0 mi South 9.2 mph 17.3 mph N/A   Overcast
7:36 PM 61.3 °F 61.3 °F 100% 29.48 in 10.0 mi South 6.9 mph - N/A   Overcast
7:55 PM 61.2 °F 61.2 °F 100% 29.48 in 10.0 mi South 6.9 mph 17.3 mph N/A   Overcast
7:56 PM 61.2 °F 61.2 °F 100% 29.48 in 10.0 mi South 6.9 mph 17.3 mph N/A   Overcast
8:15 PM 62.4 °F 62.4 °F 100% 29.49 in 10.0 mi South 12.7 mph 21.9 mph N/A   Overcast
8:16 PM 62.6 °F 62.6 °F 100% 29.49 in 10.0 mi South 11.5 mph 21.9 mph N/A   Overcast
8:39 PM 62.1 °F 62.1 °F 100% 29.49 in 10.0 mi SSW 17.3 mph 25.3 mph N/A   Overcast
8:56 PM 62.1 °F 61.5 °F 98% 29.50 in 10.0 mi SSW 15.0 mph 29.9 mph N/A Rain Rain
9:15 PM 60.8 °F 60.8 °F 100% 29.50 in 10.0 mi SW 13.8 mph 21.9 mph N/A   Mostly Cloudy
9:16 PM 60.8 °F 60.6 °F 99% 29.50 in 10.0 mi SW 16.1 mph 21.9 mph N/A   Scattered Clouds
9:35 PM 59.9 °F 53.6 °F 80% 29.51 in 10.0 mi SW 13.8 mph 20.7 mph N/A   Scattered Clouds
9:36 PM 59.7 °F 53.4 °F 80% 29.51 in 10.0 mi SW 12.7 mph 20.7 mph N/A   Scattered Clouds
9:55 PM 58.5 °F 50.4 °F 74% 29.51 in 10.0 mi SW 12.7 mph 19.6 mph N/A   Scattered Clouds
10:18 PM 57.2 °F 46.2 °F 67% 29.52 in 10.0 mi SW 12.7 mph - N/A   Clear
10:36 PM 55.9 °F 45.1 °F 67% 29.53 in 10.0 mi SW 10.4 mph 18.4 mph N/A   Scattered Clouds
10:55 PM 54.7 °F 45.0 °F 70% 29.53 in 10.0 mi SSW 9.2 mph - N/A   Scattered Clouds
10:56 PM 54.7 °F 45.0 °F 70% 29.53 in 10.0 mi SSW 9.2 mph - N/A   Scattered Clouds
11:15 PM 54.9 °F 44.6 °F 68% 29.54 in 10.0 mi SW 15.0 mph 20.7 mph N/A   Clear
11:39 PM 54.5 °F 41.9 °F 62% 29.55 in 10.0 mi SW 18.4 mph 26.5 mph N/A   Scattered Clouds
11:57 PM 53.6 °F 42.1 °F 65% 29.55 in 10.0 mi SW 11.5 mph 20.7 mph N/A   Scattered Clouds